Regional Weather Roundup
Issued by NWS Albany, NY

Home | Current Version | Previous Version | Text Only | Print | Product List | Glossary On
Versions: 1 2 3 4 5 6 7 8 9 10 11 12 13 14 15 16 17 18 19 20 21 22 23 24 25 26 27 28 29 30 31 32 33 34 35 36 37 38 39 40 41 42 43 44 45 46 47 48 49
000
ASUS41 KALY 282310
RWRALY

NEW YORK STATE HOURLY WEATHER ROUNDUP
NATIONAL WEATHER SERVICE ALBANY NY
700 PM EDT THU MAY 28 2015

NOTE: "FAIR" INDICATES FEW OR NO CLOUDS BELOW 12,000 FEET WITH NO
SIGNIFICANT WEATHER AND/OR NO OBSTRUCTIONS TO VISIBILITY.

NYZ032-033-038>043-046>054-057>066-NYZ062>081-290000-
EAST


CITY           SKY/WX    TMP DP  RH WIND       PRES   REMARKS
ALBANY         PTSUNNY   71  53  52 NW14      30.21R
GLENS FALLS    PTSUNNY   70  54  56 W6        30.18R
POUGHKEEPSIE   MOSUNNY   83  55  38 W9        30.13R
NEWBURGH       MOSUNNY   81  59  47 NW12G17   30.16R
MONTGOMERY     MOSUNNY   80  56  43 NW15      30.16R
WHITE PLAINS   PTSUNNY   76  66  71 SE7       30.15R
ISLIP          CLOUDY    68  62  81 SW9       30.15R
NEW YORK CITY  CLOUDY    81  63  54 VRB6      30.12R
CENTRAL PARK   CLOUDY    83  66  56 CALM      30.15R
$$

NYZ005>009-017-018-044>046-055-056-290000-
CENTRAL


CITY           SKY/WX    TMP DP  RH WIND       PRES   REMARKS
FULTON         SUNNY     71  55  56 W5        30.23F
SYRACUSE       MOSUNNY   72  54  53 NW6       30.23S
ROME           SUNNY     70  54  56 NW12      30.24R
ELMIRA         SUNNY     74  54  49 N7        30.23S
BINGHAMTON     MOSUNNY   69  53  56 N12       30.26R
MONTICELLO     MOSUNNY   72  54  53 NW9       30.24R
$$

NYZ026>034-041>043-290000-
NORTH


CITY           SKY/WX    TMP DP  RH WIND       PRES   REMARKS
WATERTOWN      SUNNY     66  54  65 SW7       30.23R
FORT DRUM      NOT AVBL
MASSENA        SUNNY     70  54  56 NW5       30.20S
SARANAC LAKE   CLOUDY    59  56  89 VRB5      30.22R
PLATTSBURGH    MOSUNNY   67  56  67 NW10      30.17R
$$

NYZ001>004-010>016-019>021-290000-
WEST


CITY           SKY/WX    TMP DP  RH WIND       PRES   REMARKS
NIAGARA FALLS  MOSUNNY   76  53  44 SW6       30.22S
BUFFALO        MOSUNNY   74  52  46 SW6       30.24R
DUNKIRK        SUNNY     70  54  56 N5        30.24S
JAMESTOWN      SUNNY     73  50  43 N5        30.28R
WELLSVILLE     SUNNY     72  49  44 NW6       30.29S
ROCHESTER      MOSUNNY   75  51  43 W7        30.24R
PENN YAN       SUNNY     72  53  51 VRB3      30.25S
$$

             KEY
       WCI = WIND CHILL INDEX
       VSB = VISIBILITY
       HX  = HEAT INDEX
$$


USA.gov is the U.S. government's official web portal to all federal, state and local government web resources and services.